This demonstration page uses our WeatherBlox Daily Observations layout. Learn more.

39.92423, -83.80882

Hourly Observations for August 19, 2019

Temp ( °F °C ) Dew Point ( °F °C ) Humidity (%) Winds ( mph kmh ) Pressure ( in mb ) Visibility ( mi km ) Precip ( " mm )
12:56 am 00:56 Mostly Cloudy 70 21.1 68 20 93 93 Calm 29.97 1015 10 16.09344 0.001 0.001
1:56 am 01:56 Clear 69 20.6 69 20.6 100 100 Calm 29.97 1015 10 16.09344 0 0
2:56 am 02:56 Clear 68 20 68 20 100 100 Calm 29.97 1015 10 16.09344 0 0
3:56 am 03:56 Clear 68 20 68 20 100 100 Calm 29.97 1015 10 16.09344 0 0
4:56 am 04:56 Clear 65 18.3 65 18.3 100 100 E 6 9 29.97 1015 10 16.09344 0 0
5:56 am 05:56 Clear 66 18.9 66 18.9 100 100 Calm 29.97 1015 10 16.09344 0 0
6:56 am 06:56 Sunny 67 19.4 67 19.4 100 100 Calm 30 1016 10 16.09344 0 0
7:56 am 07:56 Sunny 68 20 68 20 100 100 S 3 6 30 1016 10 16.09344 0 0
8:56 am 08:56 Sunny 73 22.8 69 20.6 87 87 S 5 7 30.03 1017 10 16.09344 0 0
9:56 am 09:56 Cloudy 75 23.9 69 20.6 82 82 SSW 5 7 30.03 1017 10 16.09344 0 0
10:56 am 10:56 Partly Cloudy 80 26.7 69 20.6 69 69 SSW 5 7 30.03 1017 10 16.09344 0 0
11:56 am 11:56 Cloudy 82 27.8 71 21.7 69 69 SSE 6 9 30.06 1018 10 16.09344 0 0
12:56 pm 12:56 Mostly Cloudy with Haze 83 28.3 71 21.7 67 67 SSE 7 11 30.06 1018 6 9.656064 0 0
1:56 pm 13:56 Mostly Cloudy 86 30 71 21.7 61 61 SW 6 9 30.06 1018 10 16.09344 0 0
2:56 pm 14:56 Cloudy 84 28.9 71 21.7 65 65 SSE 8 13 30.03 1017 10 16.09344 0 0
3:56 pm 15:56 Cloudy 86 30 72 22.2 63 63 SE 6 9 30.03 1017 10 16.09344 0 0
4:56 pm 16:56 Mostly Sunny 86 30 72 22.2 63 63 S 3 6 30 1016 10 16.09344 0 0
5:56 pm 17:56 Partly Cloudy 86 30 72 22.2 63 63 Calm 30 1016 10 16.09344 0 0
6:56 pm 18:56 Mostly Cloudy 84 28.9 73 22.8 70 70 NNE 3 6 30 1016 10 16.09344 0 0
7:36 pm 19:36 Sunny with Nearby Thunderstorms 84 29 72 22 66 66 NE 8 13 29.97 1015 10 16.09344 0 0
7:40 pm 19:40 Sunny with Nearby Thunderstorms 84 29 72 22 66 66 NE 8 13 29.97 1015 10 16.09344 0 0
7:51 pm 19:51 Partly Cloudy 84 29 73 23 70 70 NE 6 9 29.97 1015 10 16.09344 0 0
7:56 pm 19:56 Partly Cloudy 83 28.3 72 22.2 70 70 NE 8 13 30 1016 10 16.09344 0 0
8:56 pm 20:56 Clear 78 25.6 68 20 71 71 Calm 30 1016 10 16.09344 0 0
9:56 pm 21:56 Clear 75 23.9 68 20 79 79 ENE 3 6 30.03 1017 10 16.09344 0 0
10:56 pm 22:56 Mostly Cloudy 74 23.3 69 20.6 85 85 Calm 30.03 1017 10 16.09344 0 0
11:56 pm 23:56 Mostly Cloudy 71 21.7 69 20.6 94 94 E 5 7 30.03 1017 10 16.09344 0 0

Powered by AerisWeather